sat.trackr.live / text

‹ back to catalog

COSMOS 2489 (RODNIK-S 8)

NORAD 39484 · 2013-076B

PAYLOAD ACTIVE UNKNOWN

§ Identity

Operator
Country
CIS
Launch date
2013-12-25
Launch site
PLMSC
Launch vehicle
Mass (kg)
RCS (m²)
1.70

External: N2YO · Heavens-Above · Gunter

§ Orbital elements

Epoch: 2026-09-09T05:07:06.269664Z

Period
115.86 min
Inclination
82.4869°
Eccentricity
0.0020375
Mean motion
12.42881839 rev/d
Perigee alt
1,478.4 km
Apogee alt
1,510.5 km
Semi-major
7,872.5 km
B*
5.2975e-5
RAAN
117.7558°
Arg perigee
274.4507°
Mean anomaly
85.4244°
Rev number
57,638

§ Raw data

COSMOS 2489 (RODNIK-S 8)1 39484U 13076B   26252.21326701  .00000017  00000+0  52975-4 0  99932 39484  82.4869 117.7558 0020375 274.4507  85.4244 12.42881839576389

JSON: /api/v1/satellites/39484 · /tle

For live sub-satellite position, see the globe view (requires WebGL).

§ Visibility from observer

Set your observer location to see the next 7 days of passes ≥ 10°. The values pass through the URL so the page stays shareable.

No JS? Fill the form by hand. The geolocation button needs JavaScript.

§ Radio — SatNOGS DB

ModeDescriptionDownlinkUplink
FM 265.95 265.950 MHz
FM UHF Unknown 387.175 MHz
FM UHF Unknown 388.687 MHz

3 transmitters · refreshed weekly from db.satnogs.org